Year,Month,Day,Hour,Minute,Value (Times are PST for temperature in C)
2019,09,22,00,00,15.90
2019,09,22,00,01,15.90
2019,09,22,00,02,15.90
2019,09,22,00,03,15.90
2019,09,22,00,04,15.90
2019,09,22,00,05,15.90
2019,09,22,00,06,15.80
2019,09,22,00,07,15.80
2019,09,22,00,08,15.80
2019,09,22,00,09,15.80
2019,09,22,00,10,15.80
2019,09,22,00,11,15.80
2019,09,22,00,12,15.80
2019,09,22,00,13,15.80
2019,09,22,00,14,15.80
2019,09,22,00,15,15.70
2019,09,22,00,16,15.70
2019,09,22,00,17,15.70
2019,09,22,00,18,15.70
2019,09,22,00,19,15.70
2019,09,22,00,20,15.70
2019,09,22,00,21,15.60
2019,09,22,00,22,15.60
2019,09,22,00,23,15.60
2019,09,22,00,24,15.60
2019,09,22,00,25,15.60
2019,09,22,00,26,15.60
2019,09,22,00,27,15.50
2019,09,22,00,28,15.50
2019,09,22,00,29,15.50
2019,09,22,00,30,15.50
2019,09,22,00,31,15.50
2019,09,22,00,32,15.40
2019,09,22,00,33,15.40
2019,09,22,00,34,15.40
2019,09,22,00,35,15.40
2019,09,22,00,36,15.30
2019,09,22,00,37,15.30
2019,09,22,00,38,15.30
2019,09,22,00,39,15.30
2019,09,22,00,40,15.30
2019,09,22,00,41,15.30
2019,09,22,00,42,15.30
2019,09,22,00,43,15.30
2019,09,22,00,44,15.20
2019,09,22,00,45,15.20
2019,09,22,00,46,15.20
2019,09,22,00,47,15.20
2019,09,22,00,48,15.20
2019,09,22,00,49,15.20
2019,09,22,00,50,15.20
2019,09,22,00,51,15.10
2019,09,22,00,52,15.10
2019,09,22,00,53,15.10
2019,09,22,00,54,15.10
2019,09,22,00,55,15.10
2019,09,22,00,56,15.10
2019,09,22,00,57,15.10
2019,09,22,00,58,15.10
2019,09,22,00,59,15.10
2019,09,22,01,00,15.10
2019,09,22,01,01,15.10
2019,09,22,01,02,15.10
2019,09,22,01,03,15.10
2019,09,22,01,04,15.10
2019,09,22,01,05,15.00
2019,09,22,01,06,15.00
2019,09,22,01,07,15.10
2019,09,22,01,08,15.00
2019,09,22,01,09,15.00
2019,09,22,01,10,15.00
2019,09,22,01,11,15.00
2019,09,22,01,12,15.00
2019,09,22,01,13,15.00
2019,09,22,01,14,15.00
2019,09,22,01,15,15.00
2019,09,22,01,16,15.00
2019,09,22,01,17,15.00
2019,09,22,01,18,15.00
2019,09,22,01,19,15.00
2019,09,22,01,20,15.00
2019,09,22,01,21,15.00
2019,09,22,01,22,15.00
2019,09,22,01,23,14.90
2019,09,22,01,24,15.00
2019,09,22,01,25,14.90
2019,09,22,01,26,14.90
2019,09,22,01,27,14.90
2019,09,22,01,28,14.90
2019,09,22,01,29,14.90
2019,09,22,01,30,14.90
2019,09,22,01,31,14.90
2019,09,22,01,32,14.90
2019,09,22,01,33,14.80
2019,09,22,01,34,14.80
2019,09,22,01,35,14.80
2019,09,22,01,36,14.80
2019,09,22,01,37,14.80
2019,09,22,01,38,14.80
2019,09,22,01,39,14.80
2019,09,22,01,40,14.80
2019,09,22,01,41,14.80
2019,09,22,01,42,14.70
2019,09,22,01,43,14.70
2019,09,22,01,44,14.70
2019,09,22,01,45,14.70
2019,09,22,01,46,14.70
2019,09,22,01,47,14.70
2019,09,22,01,48,14.70
2019,09,22,01,49,14.70
2019,09,22,01,50,14.70
2019,09,22,01,51,14.70
2019,09,22,01,52,14.70
2019,09,22,01,53,14.70
2019,09,22,01,54,14.70
2019,09,22,01,55,14.70
2019,09,22,01,56,14.70
2019,09,22,01,57,14.70
2019,09,22,01,58,14.70
2019,09,22,01,59,14.70
2019,09,22,02,00,14.70
2019,09,22,02,01,14.70
2019,09,22,02,02,14.70
2019,09,22,02,03,14.70
2019,09,22,02,04,14.70
2019,09,22,02,05,14.70
2019,09,22,02,06,14.70
2019,09,22,02,07,14.70
2019,09,22,02,08,14.70
2019,09,22,02,09,14.70
2019,09,22,02,10,14.70
2019,09,22,02,11,14.70
2019,09,22,02,12,14.70
2019,09,22,02,13,14.70
2019,09,22,02,14,14.70
2019,09,22,02,15,14.70
2019,09,22,02,16,14.70
2019,09,22,02,17,14.70
2019,09,22,02,18,14.60
2019,09,22,02,19,14.60
2019,09,22,02,20,14.60
2019,09,22,02,21,14.60
2019,09,22,02,22,14.60
2019,09,22,02,23,14.60
2019,09,22,02,24,14.60
2019,09,22,02,25,14.60
2019,09,22,02,26,14.60
2019,09,22,02,27,14.60
2019,09,22,02,28,14.60
2019,09,22,02,29,14.60
2019,09,22,02,30,14.50
2019,09,22,02,31,14.50
2019,09,22,02,32,14.50
2019,09,22,02,33,14.50
2019,09,22,02,34,14.50
2019,09,22,02,35,14.50
2019,09,22,02,36,14.50
2019,09,22,02,37,14.50
2019,09,22,02,38,14.50
2019,09,22,02,39,14.40
2019,09,22,02,40,14.50
2019,09,22,02,41,14.50
2019,09,22,02,42,14.50
2019,09,22,02,43,14.50
2019,09,22,02,44,14.40
2019,09,22,02,45,14.50
2019,09,22,02,46,14.50
2019,09,22,02,47,14.50
2019,09,22,02,48,14.40
2019,09,22,02,49,14.40
2019,09,22,02,50,14.40
2019,09,22,02,51,14.40
2019,09,22,02,52,14.40
2019,09,22,02,53,14.40
2019,09,22,02,54,14.40
2019,09,22,02,55,14.40
2019,09,22,02,56,14.40
2019,09,22,02,57,14.40
2019,09,22,02,58,14.40
2019,09,22,02,59,14.40
2019,09,22,03,00,14.40
2019,09,22,03,01,14.40
2019,09,22,03,02,14.40
2019,09,22,03,03,14.40
2019,09,22,03,04,14.40
2019,09,22,03,05,14.40
2019,09,22,03,06,14.40
2019,09,22,03,07,14.40
2019,09,22,03,08,14.40
2019,09,22,03,09,14.40
2019,09,22,03,10,14.40
2019,09,22,03,11,14.40
2019,09,22,03,12,14.50
2019,09,22,03,13,14.50
2019,09,22,03,14,14.50
2019,09,22,03,15,14.50
2019,09,22,03,16,14.50
2019,09,22,03,17,14.50
2019,09,22,03,18,14.50
2019,09,22,03,19,14.50
2019,09,22,03,20,14.50
2019,09,22,03,21,14.50
2019,09,22,03,22,14.50
2019,09,22,03,23,14.50
2019,09,22,03,24,14.40
2019,09,22,03,25,14.40
2019,09,22,03,26,14.40
2019,09,22,03,27,14.40
2019,09,22,03,28,14.40
2019,09,22,03,29,14.40
2019,09,22,03,30,14.40
2019,09,22,03,31,14.40
2019,09,22,03,32,14.40
2019,09,22,03,33,14.40
2019,09,22,03,34,14.30
2019,09,22,03,35,14.30
2019,09,22,03,36,14.30
2019,09,22,03,37,14.30
2019,09,22,03,38,14.30
2019,09,22,03,39,14.30
2019,09,22,03,40,14.30
2019,09,22,03,41,14.30
2019,09,22,03,42,14.30
2019,09,22,03,43,14.30
2019,09,22,03,44,14.30
2019,09,22,03,45,14.30
2019,09,22,03,46,14.30
2019,09,22,03,47,14.30
2019,09,22,03,48,14.30
2019,09,22,03,49,14.30
2019,09,22,03,50,14.30
2019,09,22,03,51,14.30
2019,09,22,03,52,14.30
2019,09,22,03,53,14.20
2019,09,22,03,54,14.20
2019,09,22,03,55,14.20
2019,09,22,03,56,14.20
2019,09,22,03,57,14.20
2019,09,22,03,58,14.20
2019,09,22,03,59,14.20
2019,09,22,04,00,14.20
2019,09,22,04,01,14.20
2019,09,22,04,02,14.20
2019,09,22,04,03,14.20
2019,09,22,04,04,14.20
2019,09,22,04,05,14.20
2019,09,22,04,06,14.20
2019,09,22,04,07,14.20
2019,09,22,04,08,14.20
2019,09,22,04,09,14.20
2019,09,22,04,10,14.10
2019,09,22,04,11,14.10
2019,09,22,04,12,14.10
2019,09,22,04,13,14.10
2019,09,22,04,14,14.10
2019,09,22,04,15,14.10
2019,09,22,04,16,14.10
2019,09,22,04,17,14.10
2019,09,22,04,18,14.10
2019,09,22,04,19,14.10
2019,09,22,04,20,14.00
2019,09,22,04,21,14.00
2019,09,22,04,22,14.00
2019,09,22,04,23,13.90
2019,09,22,04,24,13.90
2019,09,22,04,25,13.90
2019,09,22,04,26,13.90
2019,09,22,04,27,13.80
2019,09,22,04,28,13.80
2019,09,22,04,29,13.80
2019,09,22,04,30,13.80
2019,09,22,04,31,13.70
2019,09,22,04,32,13.70
2019,09,22,04,33,13.70
2019,09,22,04,34,13.60
2019,09,22,04,35,13.60
2019,09,22,04,36,13.60
2019,09,22,04,37,13.60
2019,09,22,04,38,13.60
2019,09,22,04,39,13.60
2019,09,22,04,40,13.60
2019,09,22,04,41,13.60
2019,09,22,04,42,13.60
2019,09,22,04,43,13.60
2019,09,22,04,44,13.60
2019,09,22,04,45,13.60
2019,09,22,04,46,13.60
2019,09,22,04,47,13.60
2019,09,22,04,48,13.60
2019,09,22,04,49,13.60
2019,09,22,04,50,13.60
2019,09,22,04,51,13.60
2019,09,22,04,52,13.60
2019,09,22,04,53,13.60
2019,09,22,04,54,13.60
2019,09,22,04,55,13.60
2019,09,22,04,56,13.60
2019,09,22,04,57,13.60
2019,09,22,04,58,13.60
2019,09,22,04,59,13.60
2019,09,22,05,00,13.60
2019,09,22,05,01,13.60
2019,09,22,05,02,13.60
2019,09,22,08,11,14.60
2019,09,22,08,12,14.60
2019,09,22,08,13,14.60
2019,09,22,08,14,14.60
2019,09,22,08,15,14.60
2019,09,22,08,16,14.60
2019,09,22,08,17,14.60
2019,09,22,08,18,14.60
2019,09,22,08,19,14.60
2019,09,22,08,20,14.60
2019,09,22,08,21,14.60
2019,09,22,08,22,14.60
2019,09,22,08,23,14.60
2019,09,22,08,24,14.60
2019,09,22,08,25,14.60
2019,09,22,08,26,14.60
2019,09,22,08,27,14.60
2019,09,22,08,28,14.60
2019,09,22,08,29,14.60
2019,09,22,08,30,14.60
2019,09,22,08,31,14.60
2019,09,22,08,32,14.60
2019,09,22,08,33,14.60
2019,09,22,08,34,14.50
2019,09,22,08,35,14.50
2019,09,22,08,36,14.50
2019,09,22,08,37,14.50
2019,09,22,08,38,14.50
2019,09,22,08,39,14.50
2019,09,22,08,40,14.50
2019,09,22,08,41,14.50
2019,09,22,08,42,14.50
2019,09,22,08,43,14.50
2019,09,22,08,44,14.50
2019,09,22,08,45,14.50
2019,09,22,08,46,14.40
2019,09,22,08,47,14.50
2019,09,22,08,48,14.40
2019,09,22,08,49,14.40
2019,09,22,08,50,14.40
2019,09,22,08,51,14.40
2019,09,22,08,52,14.50
2019,09,22,08,53,14.40
2019,09,22,08,54,14.50
2019,09,22,08,55,14.50
2019,09,22,08,56,14.50
2019,09,22,08,57,14.50
2019,09,22,08,58,14.50
2019,09,22,08,59,14.50
2019,09,22,09,00,14.50
2019,09,22,09,01,14.50
2019,09,22,09,02,14.50
2019,09,22,09,03,14.50
2019,09,22,09,04,14.50
2019,09,22,09,05,14.50
2019,09,22,09,06,14.50
2019,09,22,09,07,14.50
2019,09,22,09,08,14.50
2019,09,22,09,09,14.50
2019,09,22,09,10,14.50
2019,09,22,09,11,14.50
2019,09,22,09,12,14.50
2019,09,22,09,13,14.50
2019,09,22,09,14,14.50
2019,09,22,09,15,14.50
2019,09,22,09,16,14.60
2019,09,22,09,17,14.60
2019,09,22,09,18,14.60
2019,09,22,09,19,14.60
2019,09,22,09,20,14.60
2019,09,22,09,21,14.60
2019,09,22,09,22,14.60
2019,09,22,09,23,14.60
2019,09,22,09,24,14.60
2019,09,22,09,25,14.60
2019,09,22,09,26,14.60
2019,09,22,09,27,14.60
2019,09,22,09,28,14.60
2019,09,22,09,29,14.60
2019,09,22,09,30,14.60
2019,09,22,09,31,14.60
2019,09,22,09,32,14.60
2019,09,22,09,33,14.60
2019,09,22,09,34,14.60
2019,09,22,09,35,14.60
2019,09,22,09,36,14.60
2019,09,22,09,37,14.60
2019,09,22,09,38,14.60
2019,09,22,09,39,14.60
2019,09,22,09,40,14.60
2019,09,22,09,41,14.60
2019,09,22,09,42,14.60
2019,09,22,09,43,14.60
2019,09,22,09,44,14.60
2019,09,22,09,45,14.60
2019,09,22,09,46,14.60
2019,09,22,09,47,14.60
2019,09,22,09,48,14.60
2019,09,22,09,49,14.60
2019,09,22,09,50,14.60
2019,09,22,09,51,14.60
2019,09,22,09,52,14.60
2019,09,22,09,53,14.60
2019,09,22,09,54,14.60
2019,09,22,09,55,14.60
2019,09,22,09,56,14.60
2019,09,22,09,57,14.60
2019,09,22,09,58,14.60
2019,09,22,09,59,14.60
2019,09,22,10,00,14.60
2019,09,22,10,01,14.50
2019,09,22,10,02,14.50
2019,09,22,10,03,14.50
2019,09,22,10,04,14.50
2019,09,22,10,05,14.50
2019,09,22,10,06,14.50
2019,09,22,10,07,14.50
2019,09,22,10,08,14.50
2019,09,22,10,09,14.50
2019,09,22,10,10,14.50
2019,09,22,10,11,14.50
2019,09,22,10,12,14.60
2019,09,22,10,13,14.60
2019,09,22,10,14,14.60
2019,09,22,10,15,14.60
2019,09,22,10,16,14.60
2019,09,22,10,17,14.60
2019,09,22,10,18,14.60
2019,09,22,10,19,14.60
2019,09,22,10,20,14.60
2019,09,22,10,21,14.60
2019,09,22,10,22,14.60
2019,09,22,10,23,14.60
2019,09,22,10,24,14.60
2019,09,22,10,25,14.60
2019,09,22,10,26,14.60
2019,09,22,10,27,14.60
2019,09,22,10,28,14.60
2019,09,22,10,29,14.60
2019,09,22,10,30,14.60
2019,09,22,10,31,14.60
2019,09,22,10,32,14.60
2019,09,22,10,33,14.60
2019,09,22,10,34,14.60
2019,09,22,10,35,14.60
2019,09,22,10,36,14.60
2019,09,22,10,37,14.60
2019,09,22,10,38,14.60
2019,09,22,10,39,14.60
2019,09,22,10,40,14.60
2019,09,22,10,41,14.60
2019,09,22,10,42,14.60
2019,09,22,10,43,14.60
2019,09,22,10,44,14.60
2019,09,22,10,45,14.60
2019,09,22,10,46,14.60
2019,09,22,10,47,14.60
2019,09,22,10,48,14.60
2019,09,22,10,49,14.60
2019,09,22,10,50,14.60
2019,09,22,10,51,14.60
2019,09,22,10,52,14.60
2019,09,22,10,53,14.70
2019,09,22,10,54,14.70
2019,09,22,10,55,14.70
2019,09,22,10,56,14.70
2019,09,22,10,57,14.70
2019,09,22,10,58,14.70
2019,09,22,10,59,14.70
2019,09,22,11,00,14.70
2019,09,22,11,01,14.80
2019,09,22,11,02,14.80
2019,09,22,11,03,14.80
2019,09,22,11,04,14.80
2019,09,22,11,05,14.80
2019,09,22,11,06,14.80
2019,09,22,11,07,14.80
2019,09,22,11,08,14.80
2019,09,22,11,09,14.80
2019,09,22,11,10,14.80
2019,09,22,11,11,14.80
2019,09,22,11,12,14.90
2019,09,22,11,13,14.90
2019,09,22,11,14,14.90
2019,09,22,11,15,14.90
2019,09,22,11,16,14.90
2019,09,22,11,17,14.80
2019,09,22,11,18,14.80
2019,09,22,11,19,14.80
2019,09,22,11,20,14.80
2019,09,22,11,21,14.80
2019,09,22,11,22,14.80
2019,09,22,11,23,14.80
2019,09,22,11,24,14.90
2019,09,22,11,25,14.90
2019,09,22,11,26,14.90
2019,09,22,11,27,14.90
2019,09,22,11,28,14.90
2019,09,22,11,29,14.90
2019,09,22,11,30,14.90
2019,09,22,11,31,14.90
2019,09,22,11,32,14.90
2019,09,22,11,33,14.90
2019,09,22,11,34,15.00
2019,09,22,11,35,15.00
2019,09,22,11,36,15.00
2019,09,22,11,37,14.90
2019,09,22,11,38,14.90
2019,09,22,11,39,15.00
2019,09,22,11,40,14.90
2019,09,22,11,41,14.90
2019,09,22,11,42,14.90
2019,09,22,11,43,14.90
2019,09,22,11,44,14.90
2019,09,22,11,45,14.90
2019,09,22,11,46,14.90
2019,09,22,11,47,14.90
2019,09,22,11,48,14.90
2019,09,22,11,49,14.90
2019,09,22,11,50,14.90
2019,09,22,11,51,14.90
2019,09,22,11,52,14.90
2019,09,22,11,53,14.90
2019,09,22,11,54,14.90
2019,09,22,11,55,14.90
2019,09,22,11,56,14.90
2019,09,22,11,57,14.90
2019,09,22,11,58,14.90
2019,09,22,11,59,14.90
2019,09,22,12,00,14.90
2019,09,22,12,01,14.90
2019,09,22,12,02,14.90
2019,09,22,12,03,15.00
2019,09,22,12,04,15.00
2019,09,22,12,05,15.00
2019,09,22,12,06,15.00
2019,09,22,12,07,15.00
2019,09,22,12,08,15.00
2019,09,22,12,09,15.00
2019,09,22,12,10,15.00
2019,09,22,12,11,15.00
2019,09,22,12,12,15.00
2019,09,22,12,13,15.00
2019,09,22,12,14,15.00
2019,09,22,12,15,15.00
2019,09,22,12,16,15.00
2019,09,22,12,17,15.00
2019,09,22,12,18,15.00
2019,09,22,12,19,15.00
2019,09,22,12,20,15.00
2019,09,22,12,21,15.10
2019,09,22,12,22,15.10
2019,09,22,12,23,15.10
2019,09,22,12,24,15.10
2019,09,22,12,25,15.10
2019,09,22,12,26,15.10
2019,09,22,12,27,15.10
2019,09,22,12,28,15.10
2019,09,22,12,29,15.10
2019,09,22,12,30,15.10
2019,09,22,12,31,15.10
2019,09,22,12,32,15.10
2019,09,22,12,33,15.20
2019,09,22,12,34,15.20
2019,09,22,12,35,15.20
2019,09,22,12,36,15.20
2019,09,22,12,37,15.20
2019,09,22,12,38,15.30
2019,09,22,12,39,15.30
2019,09,22,12,40,15.30
2019,09,22,12,41,15.30
2019,09,22,12,42,15.30
2019,09,22,12,43,15.40
2019,09,22,12,44,15.40
2019,09,22,12,45,15.40
2019,09,22,12,46,15.40
2019,09,22,12,47,15.40
2019,09,22,12,48,15.50
2019,09,22,12,49,15.40
2019,09,22,12,50,15.50
2019,09,22,12,51,15.50
2019,09,22,12,52,15.50
2019,09,22,12,53,15.50
2019,09,22,12,54,15.50
2019,09,22,12,55,15.50
2019,09,22,12,56,15.50
2019,09,22,12,57,15.50
2019,09,22,12,58,15.50
2019,09,22,12,59,15.50
2019,09,22,13,00,15.60
2019,09,22,13,01,15.60
2019,09,22,13,02,15.60
2019,09,22,13,03,15.60
2019,09,22,13,04,15.60
2019,09,22,13,05,15.60
2019,09,22,13,06,15.60
2019,09,22,13,07,15.60
2019,09,22,13,08,15.70
2019,09,22,13,09,15.70
2019,09,22,13,10,15.70
2019,09,22,13,11,15.70
2019,09,22,13,12,15.70
2019,09,22,13,13,15.80
2019,09,22,13,14,15.80
2019,09,22,13,15,15.80
2019,09,22,13,16,15.90
2019,09,22,13,17,15.90
2019,09,22,13,18,15.90
2019,09,22,13,19,15.90
2019,09,22,13,20,16.00
2019,09,22,13,21,16.00
2019,09,22,13,22,16.00
2019,09,22,13,23,16.10
2019,09,22,13,24,16.10
2019,09,22,13,25,16.20
2019,09,22,13,26,16.20
2019,09,22,13,27,16.20
2019,09,22,13,28,16.30
2019,09,22,13,29,16.30
2019,09,22,13,30,16.30
2019,09,22,13,31,16.30
2019,09,22,13,32,16.30
2019,09,22,13,33,16.40
2019,09,22,13,34,16.40
2019,09,22,13,35,16.40
2019,09,22,13,36,16.40
2019,09,22,13,37,16.40
2019,09,22,13,38,16.40
2019,09,22,13,39,16.40
2019,09,22,13,40,16.40
2019,09,22,13,41,16.40
2019,09,22,13,42,16.40
2019,09,22,13,43,16.40
2019,09,22,13,44,16.40
2019,09,22,13,45,16.40
2019,09,22,13,46,16.40
2019,09,22,13,47,16.50
2019,09,22,13,48,16.50
2019,09,22,13,49,16.50
2019,09,22,13,50,16.60
2019,09,22,13,51,16.60
2019,09,22,13,52,16.60
2019,09,22,13,53,16.60
2019,09,22,13,54,16.60
2019,09,22,13,55,16.70
2019,09,22,13,56,16.70
2019,09,22,13,57,16.70
2019,09,22,13,58,16.60
2019,09,22,13,59,16.60
2019,09,22,14,00,16.60
2019,09,22,14,01,16.60
2019,09,22,14,02,16.60
2019,09,22,14,03,16.60
2019,09,22,14,04,16.60
2019,09,22,14,05,16.50
2019,09,22,14,06,16.40
2019,09,22,14,07,16.30
2019,09,22,14,08,16.20
2019,09,22,14,09,16.10
2019,09,22,14,10,16.00
2019,09,22,14,11,15.90
2019,09,22,14,12,15.80
2019,09,22,14,13,15.70
2019,09,22,14,14,15.70
2019,09,22,14,15,15.60
2019,09,22,14,16,15.60
2019,09,22,14,17,15.50
2019,09,22,14,18,15.50
2019,09,22,14,19,15.50
2019,09,22,14,20,15.40
2019,09,22,14,21,15.40
2019,09,22,14,22,15.40
2019,09,22,14,23,15.40
2019,09,22,14,24,15.40
2019,09,22,14,25,15.40
2019,09,22,14,26,15.30
2019,09,22,14,27,15.30
2019,09,22,14,28,15.30
2019,09,22,14,29,15.30
2019,09,22,14,30,15.30
2019,09,22,14,31,15.30
2019,09,22,14,32,15.30
2019,09,22,14,33,15.30
2019,09,22,14,34,15.30
2019,09,22,14,35,15.30
2019,09,22,14,36,15.30
2019,09,22,14,37,15.30
2019,09,22,14,38,15.30
2019,09,22,14,39,15.30
2019,09,22,14,40,15.30
2019,09,22,14,41,15.30
2019,09,22,14,42,15.30
2019,09,22,14,43,15.30
2019,09,22,14,44,15.40
2019,09,22,14,45,15.40
2019,09,22,14,46,15.40
2019,09,22,14,47,15.40
2019,09,22,14,48,15.50
2019,09,22,14,49,15.50
2019,09,22,14,50,15.60
2019,09,22,14,51,15.60
2019,09,22,14,52,15.70
2019,09,22,14,53,15.70
2019,09,22,14,54,15.70
2019,09,22,14,55,15.70
2019,09,22,14,56,15.80
2019,09,22,14,57,15.80
2019,09,22,14,58,15.80
2019,09,22,14,59,15.80
2019,09,22,15,00,15.80
2019,09,22,15,01,15.70
2019,09,22,15,02,15.70
2019,09,22,15,03,15.70
2019,09,22,15,04,15.70
2019,09,22,15,05,15.70
2019,09,22,15,06,15.70
2019,09,22,15,07,15.70
2019,09,22,15,08,15.70
2019,09,22,15,09,15.70
2019,09,22,15,10,15.70
2019,09,22,15,11,15.70
2019,09,22,15,12,15.80
2019,09,22,15,13,15.80
2019,09,22,15,14,15.80
2019,09,22,15,15,15.80
2019,09,22,15,16,15.80
2019,09,22,15,17,15.80
2019,09,22,15,18,15.80
2019,09,22,15,19,15.80
2019,09,22,15,20,15.80
2019,09,22,15,21,15.80
2019,09,22,15,22,15.90
2019,09,22,15,23,15.90
2019,09,22,15,24,15.90
2019,09,22,15,25,15.90
2019,09,22,15,26,15.90
2019,09,22,15,27,15.90
2019,09,22,15,28,15.90
2019,09,22,15,29,15.90
2019,09,22,15,30,15.90
2019,09,22,15,31,15.90
2019,09,22,15,32,15.90
2019,09,22,15,33,15.80
2019,09,22,15,34,15.80
2019,09,22,15,35,15.80
2019,09,22,15,36,15.80
2019,09,22,15,37,15.80
2019,09,22,15,38,15.80
2019,09,22,15,39,15.80
2019,09,22,15,40,15.80
2019,09,22,15,41,15.80
2019,09,22,15,42,15.80
2019,09,22,15,43,15.80
2019,09,22,15,44,15.80
2019,09,22,15,45,15.80
2019,09,22,15,46,15.80
2019,09,22,15,47,15.80
2019,09,22,15,48,15.80
2019,09,22,15,49,15.80
2019,09,22,15,50,15.80
2019,09,22,15,51,15.80
2019,09,22,15,52,15.80
2019,09,22,15,53,15.80
2019,09,22,15,54,15.80
2019,09,22,15,55,15.90
2019,09,22,15,56,15.90
2019,09,22,15,57,16.00
2019,09,22,15,58,16.10
2019,09,22,15,59,16.10
2019,09,22,16,00,16.20
2019,09,22,16,01,16.30
2019,09,22,16,02,16.40
2019,09,22,16,03,16.50
2019,09,22,16,04,16.60
2019,09,22,16,05,16.70
2019,09,22,16,06,16.80
2019,09,22,16,07,16.80
2019,09,22,16,08,16.80
2019,09,22,16,09,16.80
2019,09,22,16,10,16.80
2019,09,22,16,11,16.80
2019,09,22,16,12,16.80
2019,09,22,16,13,16.80
2019,09,22,16,14,16.80
2019,09,22,16,15,16.90
2019,09,22,16,16,16.90
2019,09,22,16,17,17.00
2019,09,22,16,18,17.10
2019,09,22,16,19,17.10
2019,09,22,16,20,17.10
2019,09,22,16,21,17.10
2019,09,22,16,22,17.10
2019,09,22,16,23,17.10
2019,09,22,16,24,17.20
2019,09,22,16,25,17.20
2019,09,22,16,26,17.40
2019,09,22,16,27,17.50
2019,09,22,16,28,17.60
2019,09,22,16,29,17.70
2019,09,22,16,30,17.80
2019,09,22,16,31,17.80
2019,09,22,16,32,17.80
2019,09,22,16,33,17.80
2019,09,22,16,34,17.90
2019,09,22,16,35,17.90
2019,09,22,16,36,18.00
2019,09,22,16,37,18.00
2019,09,22,16,38,18.00
2019,09,22,16,39,18.10
2019,09,22,16,40,18.10
2019,09,22,16,41,18.10
2019,09,22,16,42,18.10
2019,09,22,16,43,18.10
2019,09,22,16,44,18.10
2019,09,22,16,45,18.10
2019,09,22,16,46,18.20
2019,09,22,16,47,18.20
2019,09,22,16,48,18.20
2019,09,22,16,49,18.20
2019,09,22,16,50,18.20
2019,09,22,16,51,18.20
2019,09,22,16,52,18.20
2019,09,22,16,53,18.20
2019,09,22,16,54,18.20
2019,09,22,16,55,18.20
2019,09,22,16,56,18.20
2019,09,22,16,57,18.20
2019,09,22,16,58,18.20
2019,09,22,16,59,18.20
2019,09,22,17,00,18.20
2019,09,22,17,01,18.20
2019,09,22,17,02,18.20
2019,09,22,17,03,18.10
2019,09,22,17,04,18.10
2019,09,22,17,05,18.10
2019,09,22,17,06,18.10
2019,09,22,17,07,18.10
2019,09,22,17,08,18.10
2019,09,22,17,09,18.10
2019,09,22,17,10,18.00
2019,09,22,17,11,18.00
2019,09,22,17,12,18.00
2019,09,22,17,13,18.00
2019,09,22,17,14,18.00
2019,09,22,17,15,18.00
2019,09,22,17,16,18.00
2019,09,22,17,17,18.00
2019,09,22,17,18,17.90
2019,09,22,17,19,17.90
2019,09,22,17,20,17.90
2019,09,22,17,21,17.90
2019,09,22,17,22,17.90
2019,09,22,17,23,17.90
2019,09,22,17,24,17.80
2019,09,22,17,25,17.80
2019,09,22,17,26,17.80
2019,09,22,17,27,17.80
2019,09,22,17,28,17.80
2019,09,22,17,29,17.70
2019,09,22,17,30,17.70
2019,09,22,17,31,17.70
2019,09,22,17,32,17.70
2019,09,22,17,33,17.60
2019,09,22,17,34,17.60
2019,09,22,17,35,17.60
2019,09,22,17,36,17.50
2019,09,22,17,37,17.50
2019,09,22,17,38,17.50
2019,09,22,17,39,17.40
2019,09,22,17,40,17.40
2019,09,22,17,41,17.40
2019,09,22,17,42,17.40
2019,09,22,17,43,17.40
2019,09,22,17,44,17.30
2019,09,22,17,45,17.30
2019,09,22,17,46,17.30
2019,09,22,17,47,17.30
2019,09,22,17,48,17.30
2019,09,22,17,49,17.30
2019,09,22,17,50,17.30
2019,09,22,17,51,17.30
2019,09,22,17,52,17.30
2019,09,22,17,53,17.30
2019,09,22,17,54,17.30
2019,09,22,17,55,17.30
2019,09,22,17,56,17.30
2019,09,22,17,57,17.30
2019,09,22,17,58,17.30
2019,09,22,17,59,17.30
2019,09,22,18,00,17.30
2019,09,22,18,01,17.30
2019,09,22,18,02,17.30
2019,09,22,18,03,17.30
2019,09,22,18,04,17.30
2019,09,22,18,05,17.30
2019,09,22,18,06,17.30
2019,09,22,18,07,17.30
2019,09,22,18,08,17.20
2019,09,22,18,09,17.20
2019,09,22,18,10,17.20
2019,09,22,18,11,17.20
2019,09,22,18,12,17.20
2019,09,22,18,13,17.20
2019,09,22,18,14,17.20
2019,09,22,18,15,17.10
2019,09,22,18,16,17.10
2019,09,22,18,17,17.10
2019,09,22,18,18,17.10
2019,09,22,18,19,17.10
2019,09,22,18,20,17.00
2019,09,22,18,21,17.00
2019,09,22,18,22,17.00
2019,09,22,18,23,17.00
2019,09,22,18,24,17.00
2019,09,22,18,25,17.00
2019,09,22,18,26,17.00
2019,09,22,18,27,17.00
2019,09,22,18,28,17.00
2019,09,22,18,29,17.00
2019,09,22,18,30,17.00
2019,09,22,18,31,17.00
2019,09,22,18,32,16.90
2019,09,22,18,33,16.90
2019,09,22,18,34,16.90
2019,09,22,18,35,16.90
2019,09,22,18,36,16.90
2019,09,22,18,37,16.90
2019,09,22,18,38,16.90
2019,09,22,18,39,16.90
2019,09,22,18,40,16.90
2019,09,22,18,41,16.90
2019,09,22,18,42,16.80
2019,09,22,18,43,16.80
2019,09,22,18,44,16.80
2019,09,22,18,45,16.80
2019,09,22,18,46,16.80
2019,09,22,18,47,16.80
2019,09,22,18,48,16.80
2019,09,22,18,49,16.80
2019,09,22,18,50,16.80
2019,09,22,18,51,16.80
2019,09,22,18,52,16.80
2019,09,22,18,53,16.80
2019,09,22,18,54,16.80
2019,09,22,18,55,16.80
2019,09,22,18,56,16.80
2019,09,22,18,57,16.80
2019,09,22,18,58,16.80
2019,09,22,18,59,16.80
2019,09,22,19,00,16.80
2019,09,22,19,01,16.80
2019,09,22,19,02,16.80
2019,09,22,19,03,16.80
2019,09,22,19,04,16.80
2019,09,22,19,05,16.80
2019,09,22,19,06,16.80
2019,09,22,19,07,16.80
2019,09,22,19,08,16.80
2019,09,22,19,09,16.80
2019,09,22,19,10,16.80
2019,09,22,19,11,16.80
2019,09,22,19,12,16.80
2019,09,22,19,13,16.80
2019,09,22,19,14,16.80
2019,09,22,19,15,16.80
2019,09,22,19,16,16.80
2019,09,22,19,17,16.80
2019,09,22,19,18,16.80
2019,09,22,19,19,16.80
2019,09,22,19,20,16.80
2019,09,22,19,21,16.80
2019,09,22,19,22,16.80
2019,09,22,19,23,16.80
2019,09,22,19,24,16.80
2019,09,22,19,25,16.80
2019,09,22,19,26,16.80
2019,09,22,19,27,16.80
2019,09,22,19,28,16.80
2019,09,22,19,29,16.80
2019,09,22,19,30,16.80
2019,09,22,19,31,16.80
2019,09,22,19,32,16.80
2019,09,22,19,33,16.80
2019,09,22,19,34,16.80
2019,09,22,19,35,16.80
2019,09,22,19,36,16.80
2019,09,22,19,37,16.80
2019,09,22,19,38,16.80
2019,09,22,19,39,16.80
2019,09,22,19,40,16.80
2019,09,22,19,41,16.80
2019,09,22,19,42,16.80
2019,09,22,19,43,16.80
2019,09,22,19,44,16.80
2019,09,22,19,45,16.80
2019,09,22,19,46,16.70
2019,09,22,19,47,16.70
2019,09,22,19,48,16.80
2019,09,22,19,49,16.70
2019,09,22,19,50,16.70
2019,09,22,19,51,16.70
2019,09,22,19,52,16.70
2019,09,22,19,53,16.70
2019,09,22,19,54,16.70
2019,09,22,19,55,16.70
2019,09,22,19,56,16.70
2019,09,22,19,57,16.70
2019,09,22,19,58,16.70
2019,09,22,19,59,16.70
2019,09,22,20,00,16.70
2019,09,22,20,01,16.70
2019,09,22,20,02,16.70
2019,09,22,20,03,16.70
2019,09,22,20,04,16.70
2019,09,22,20,05,16.70
2019,09,22,20,06,16.70
2019,09,22,20,07,16.70
2019,09,22,20,08,16.70
2019,09,22,20,09,16.70
2019,09,22,20,10,16.70
2019,09,22,20,11,16.70
2019,09,22,20,12,16.70
2019,09,22,20,13,16.70
2019,09,22,20,14,16.70
2019,09,22,20,15,16.70
2019,09,22,20,16,16.70
2019,09,22,20,17,16.70
2019,09,22,20,18,16.70
2019,09,22,20,19,16.70
2019,09,22,20,20,16.70
2019,09,22,20,21,16.70
2019,09,22,20,22,16.70
2019,09,22,20,23,16.70
2019,09,22,20,24,16.70
2019,09,22,20,25,16.60
2019,09,22,20,26,16.60
2019,09,22,20,27,16.60